SGDC (42692 NORAD) Tracking and Keplerian Element Data

This shows tracking and keplerian element data for the satellite.

Feedback or suggestion? Click here.




ElementValue
Catalog42692
NameSGDC
Epoch Orbit726
Epoch Day113.6208502
Epoch Year2019
RAAN71.9085
Inclination0.0459
Eccentricity0.0002558
Argument of Perigee332.6279
Mean Anonmoly315.4799
Mean Motion1.00272454
Decay Rate-2.65E-06
L11 42692U 17023B 19113.62085020 -.00000265 00000-0 00000+0 0 9997
L22 42692 0.0459 71.9085 0002558 332.6279 315.4799 1.00272454 7263

Live tracking and technical data element details for SGDC (NORAD 42692). SGDC can be tracked NOW for your location showing map with azimuth and elevation plus other details from your city location.

Track the satellite on the map from your city or location and see movement details for azimuth, elevation, latitude, longitude, range, height, and movement on the map or in text.







IsCatalogInMostPopularTable: catalog: 42692, numindb: 209
Update: records affected: 1



GetName: 42692 SGDC

Hit Count: updated at: Wed, 24 Apr 2019 18:45:31 GMT